San Angelo, TX

12:29 PM CDT on March 27, 2017 (GMT -0500)
San Angelo Regional-Mathis

Weather History for KSJT - June, 2013

Change the Weather History Date:

Sunday, June 16, 2013

  Actual Average Record
Temperature  
Mean Temperature 83 °F 81 °F  
Max Temperature 96 °F 92 °F 110 °F (1924)
Min Temperature 69 °F 69 °F 55 °F (1933)
Degree Days  
Heating Degree Days 0 0  
Month to date heating degree days 0 0  
Since 1 June heating degree days 0 0  
Since 1 July heating degree days 1919 2316  
Cooling Degree Days 18 16  
Month to date cooling degree days 267 232  
Year to date cooling degree days 863 692  
Since 1 June cooling degree days 267 232  
Growing Degree Days 32 (Base 50)    
Moisture  
Dew Point 69 °F    
Average Humidity 66    
Maximum Humidity 93    
Minimum Humidity 39    
Precipitation  
Precipitation 0.00 in 0.09 in 1.26 in (1961)
Month to date precipitation 1.01 1.62  
Year to date precipitation 7.39 9.64  
Sea Level Pressure  
Sea Level Pressure 29.93 in    
Wind  
Wind Speed 7 mph (South)    
Max Wind Speed 18 mph    
Max Gust Speed 24 mph    
Visibility 10 miles    
Events      
T = Trace of Precipitation, MM = Missing Value Source: NWS Daily Summary

Daily Weather History Graph

Daily Weather History Graph

Search for Another Location

Airport or City:

Trip Planner

Search our weather history database for the weather conditions in past years. The results will help you decide how hot, cold, wet, or windy it might be!

Date:

Astronomy

Jun. 16, 2013 Rise Set
Actual Time 6:37 AM CDT 8:48 PM CDT
Civil Twilight 6:09 AM CDT 9:16 PM CDT
Nautical Twilight 5:35 AM CDT 9:50 PM CDT
Astronomical Twilight 4:58 AM CDT 10:27 PM CDT
Moon 1:48 PM CDT (6/16) 1:18 AM CDT (6/16)
Length of Visible Light 15h 07m
Length of Day
14h 11m
Waxing Crescent, 50% of the Moon is Illuminated
Jun 16
Waxing Crescent
Jun 16
First Quarter
Jun 23
Full
Jun 29
Last Quarter
Jul 8
New

Hourly Weather History & Observations

Time (CDT) Temp. Heat Index Dew Point Humidity Pressure Visibility Wind Dir Wind Speed Gust Speed Precip Events Conditions
12:51 AM 72.0 °F - 68.0 °F 87% 29.93 in 10.0 mi SE 4.6 mph - N/A   Clear
1:51 AM 72.0 °F - 68.0 °F 87% 29.92 in 10.0 mi ESE 3.5 mph - N/A   Clear
2:51 AM 71.1 °F - 68.0 °F 90% 29.91 in 10.0 mi SE 3.5 mph - N/A   Clear
3:51 AM 71.1 °F - 66.9 °F 87% 29.91 in 10.0 mi Calm Calm - N/A   Scattered Clouds
4:51 AM 70.0 °F - 66.9 °F 90% 29.92 in 10.0 mi Calm Calm - N/A   Clear
5:51 AM 69.1 °F - 66.9 °F 93% 29.93 in 10.0 mi Calm Calm - N/A   Clear
6:19 AM 71.6 °F - 68.0 °F 88% 29.99 in 10.0 mi Calm Calm - N/A   Mostly Cloudy
6:51 AM 72.0 °F - 69.1 °F 91% 29.94 in 10.0 mi Calm Calm - N/A   Overcast
7:51 AM 73.0 °F - 69.1 °F 87% 29.94 in 10.0 mi Calm Calm - N/A   Overcast
8:51 AM 78.1 °F - 71.1 °F 79% 29.96 in 10.0 mi South 10.4 mph - N/A   Mostly Cloudy
9:51 AM 80.1 °F 83.6 °F 71.1 °F 74% 29.99 in 10.0 mi SSW 6.9 mph - N/A   Overcast
10:03 AM 80.6 °F 84.6 °F 71.6 °F 74% 30.06 in 10.0 mi SW 6.9 mph - N/A   Overcast
10:11 AM 80.6 °F 84.6 °F 71.6 °F 74% 30.06 in 10.0 mi South 5.8 mph - N/A   Overcast
10:22 AM 80.6 °F 84.6 °F 71.6 °F 74% 30.05 in 10.0 mi SSW 4.6 mph - N/A   Mostly Cloudy
10:51 AM 82.9 °F 87.5 °F 71.1 °F 67% 29.98 in 10.0 mi SSW 6.9 mph - N/A   Mostly Cloudy
11:51 AM 86.0 °F 90.1 °F 69.1 °F 57% 29.97 in 10.0 mi South 8.1 mph - N/A   Scattered Clouds
12:51 PM 88.0 °F 92.1 °F 69.1 °F 53% 29.96 in 10.0 mi SSW 8.1 mph - N/A   Partly Cloudy
1:51 PM 91.9 °F 95.9 °F 68.0 °F 45% 29.93 in 10.0 mi SE 8.1 mph 24.2 mph N/A   Clear
2:51 PM 93.0 °F 96.4 °F 66.9 °F 42% 29.91 in 10.0 mi SSE 9.2 mph - N/A   Scattered Clouds
3:51 PM 93.9 °F 97.0 °F 66.0 °F 40% 29.88 in 10.0 mi SSE 11.5 mph - N/A   Scattered Clouds
4:51 PM 95.0 °F 99.0 °F 66.9 °F 40% 29.86 in 10.0 mi South 11.5 mph 21.9 mph N/A   Scattered Clouds
5:51 PM 95.0 °F 97.9 °F 66.0 °F 38% 29.85 in 10.0 mi SSW 11.5 mph - N/A   Partly Cloudy
6:51 PM 93.9 °F 97.0 °F 66.0 °F 40% 29.83 in 10.0 mi SSE 10.4 mph 20.7 mph N/A   Mostly Cloudy
7:51 PM 91.0 °F 94.3 °F 66.9 °F 45% 29.84 in 10.0 mi South 12.7 mph - N/A   Partly Cloudy
8:51 PM 87.1 °F 90.6 °F 68.0 °F 53% 29.85 in 10.0 mi South 15.0 mph - N/A   Clear
9:51 PM 84.9 °F 89.4 °F 70.0 °F 61% 29.86 in 10.0 mi South 11.5 mph - N/A   Clear
10:51 PM 82.9 °F 87.5 °F 71.1 °F 67% 29.89 in 10.0 mi South 6.9 mph - N/A   Clear
11:51 PM 81.0 °F 84.9 °F 71.1 °F 72% 29.90 in 10.0 mi Calm Calm - N/A   Clear